LiveATC.Net - Listen to live air traffic control over the Internet!

Find LiveATC Audio Streams


Airport/ARTCC Code

Frequency Search
(e.g., 124.400, 128.75)
Site-wide search
 


Browse LiveATC Feeds
Top 50 LiveATC Feeds
Bad Weather Areas

LiveATC FAQ
Offer a LiveATC Feed
Contact LiveATC.net
Press Inquiries

LiveATC on iPhone
LiveATC on Android

Windows Phone
Windows 8/10

LiveATC Mobile
(Mobile browser)

ATC Audio Archives
Interesting Recordings

LiveATC Forums

Home Page
About LiveATC.net
Make a Donation
Terms of Use
Privacy Policy

Canadian Air Freqs

AIRMETs/SIGMETs

FAA Airport Status
Nat'l Airspace Status
Arrival Demand Charts


Server Software By:
Icecast.org
Liquidsoap

Select an area of interest:
U.S. Feeds: Class B Airports | Class C Airports | Class D/Other Airports | ARTCC (Centers)
International Feeds: Canada | Europe | Oceania | Asia | South America | North/Central America | Africa
Misc Feeds: HF Feeds
Search by ICAO/IATA airport code:   (e.g., kbos, kjfk, lax, eham, etc.)


Currently Available Live Feeds: 2248
Status Updated: Sat Aug 18 2018 18:43:02 UTC


NOTICE

Unauthorized use prohibited. See LiveATC.net Terms of Service

Asia Airport Feeds

 

LTAF Tower/Approach
Adana, Turkey

Feed Status: DOWN
Offline since: 2018-08-18 01:59:03 UTC
LTAF 181820Z 16003KT 130V190 9999 SCT035 28/23 Q1005 NOSIG

Adana Approach: 118.300
Adana Tower: 131.100
Adana Tower: 121.100

HF CWP 8903
Manila, Philippines

Feed Status: DOWN
Offline since: 2018-08-17 02:06:03 UTC

HF CWP: 8.903

Receiver location: Manila, Philippines

HF CWP-1 11384
Manila, Philippines

Feed Status: DOWN
Offline since: 2018-08-17 02:06:03 UTC

HF CWP-1 Toyko/Manila/San Francisco: 11.384

Receiver location: Manila, Philippines

HF RDARA Bali 8918
Manila, Philippines

Feed Status: DOWN
Offline since: 2018-08-17 02:06:03 UTC

HF RDARA Bali: 8.918

Receiver location: Manila, Philippines

HF SEA 11300
Manila, Philippines

Feed Status: DOWN
Offline since: 2018-08-17 02:06:03 UTC

HF SEA: 11.300

Receiver location: Manila, Philippines

HF SEA 5517
Manila, Philippines

Feed Status: DOWN
Offline since: 2018-08-17 02:06:03 UTC

HF SEA: 5.517

Receiver location: Manila, Philippines

HF SEA 6532
Manila, Philippines

Feed Status: DOWN
Offline since: 2018-08-17 02:06:03 UTC

HF SEA: 6.532

Receiver location: Manila, Philippines

HF SEA 8882
Manila, Philippines

Feed Status: DOWN
Offline since: 2018-08-17 02:06:03 UTC

HF SEA: 8.882

Receiver location: Manila, Philippines

HF SEA 8951
Manila, Philippines

Feed Status: DOWN
Offline since: 2018-08-17 02:06:03 UTC

HF SEA: 8.951

Receiver location: Manila, Philippines

HF SEA-2 6556
Manila, Philippines

Feed Status: DOWN
Offline since: 2018-08-17 02:06:03 UTC

HF CEP2: 11.282
HF SEA-2 Singapore: 6.556

Receiver location: Manila, Philippines

HF SEA-2 8942
Manila, Philippines

Feed Status: DOWN
Offline since: 2018-08-17 02:06:03 UTC

HF SEA-2: 8.942

Receiver location: Manila, Philippines

HF SEA-3 11396
Manila, Philippines

Feed Status: DOWN
Offline since: 2018-08-17 02:06:03 UTC

HF SEA-3 Brisbane/Ujung Pandang: 11.396

Receiver location: Manila, Philippines

OPKC Gnd/Twr/Radar (Archives)
Karachi, Pakistan

Feed Status: UP

Click on your favorite media player to listen:
Listen with WinAmp to OPKC Gnd/Twr/Radar  Listen with iTunes to OPKC Gnd/Twr/Radar  Click here to listen if using Real Player  Click here to listen if using Windows Media Player

Or simply listen in your browser:

Listen right in your browser(in browser, requires Flash)

OPKC 181755Z 24007KT 5000 FU SCT020 BKN030 28/23 Q1002 NOSIG


Listeners: 0 out of 1057 total

Karachi Ground: 121.600
Karachi Radar: 125.500
Karachi Tower: 118.300

OPLA ATIS (Archives)
Lahore, Pakistan

Feed Status: UP

Click on your favorite media player to listen:
Listen with WinAmp to OPLA ATIS  Listen with iTunes to OPLA ATIS  Click here to listen if using Real Player  Click here to listen if using Windows Media Player

Or simply listen in your browser:

Listen right in your browser(in browser, requires Flash)

OPLA 181755Z 17003KT 4000 FU SCT040 BKN100 26/24 Q1000 RMK A29.54 RMK QFE975 TEMPO 32015G35KT 2000 TSRA FEW030CB


Listeners: 0 out of 1057 total

Lahore ATIS: 126.300

OPLA/OPLH Gnd/Twr/App (Archives)
Lahore, Pakistan

Feed Status: UP

Click on your favorite media player to listen:
Listen with WinAmp to OPLA/OPLH Gnd/Twr/App  Listen with iTunes to OPLA/OPLH Gnd/Twr/App  Click here to listen if using Real Player  Click here to listen if using Windows Media Player

Or simply listen in your browser:

Listen right in your browser(in browser, requires Flash)

OPLA 181755Z 17003KT 4000 FU SCT040 BKN100 26/24 Q1000 RMK A29.54 RMK QFE975 TEMPO 32015G35KT 2000 TSRA FEW030CB


Listeners: 1 out of 1057 total

Lahore Approach: 121.300
Lahore Approach: 125.300
Lahore Control: 127.500
Lahore Ground: 118.400
Lahore Tower: 118.100
Lahore Tower: 121.800
Walton (OPLH) Tower: 119.400

OPLA/OPLH Gnd/Twr/App (Archives)
Lahore, Pakistan

Feed Status: UP

Click on your favorite media player to listen:
Listen with WinAmp to OPLA/OPLH Gnd/Twr/App  Listen with iTunes to OPLA/OPLH Gnd/Twr/App  Click here to listen if using Real Player  Click here to listen if using Windows Media Player

Or simply listen in your browser:

Listen right in your browser(in browser, requires Flash)

OPLA 181755Z 17003KT 4000 FU SCT040 BKN100 26/24 Q1000 RMK A29.54 RMK QFE975 TEMPO 32015G35KT 2000 TSRA FEW030CB


Listeners: 1 out of 1057 total

Lahore Approach: 121.300
Lahore Approach: 125.300
Lahore Control: 127.500
Lahore Ground: 118.400
Lahore Tower: 118.100
Lahore Tower: 121.800
Walton (OPLH) Tower: 119.400

OPPS Tower/App
Peshawar, Pakistan

Feed Status: DOWN
Offline since: 2018-07-12 21:43:02 UTC
OPPS 181800Z 31008KT 5000 HZ FEW040 SCT100 29/24 Q1001

Peshawar Approach: 125.600
Peshawar Tower: 121.300
Peshawar Tower: 122.900

OPRN Approach (Archives)
Islamabad, Pakistan

Feed Status: UP

Click on your favorite media player to listen:
Listen with WinAmp to OPRN Approach  Listen with iTunes to OPRN Approach  Click here to listen if using Real Player  Click here to listen if using Windows Media Player

Or simply listen in your browser:

Listen right in your browser(in browser, requires Flash)

OPRN 181800Z 05004KT 9999 FEW250 28/23 Q1003 NOSIG RMK A2962


Listeners: 0 out of 1057 total

Islamabad Approach: 124.900

OPRN ATIS (Archives)
Islamabad, Pakistan

Feed Status: UP

Click on your favorite media player to listen:
Listen with WinAmp to OPRN ATIS  Listen with iTunes to OPRN ATIS  Click here to listen if using Real Player  Click here to listen if using Windows Media Player

Or simply listen in your browser:

Listen right in your browser(in browser, requires Flash)

OPRN 181800Z 05004KT 9999 FEW250 28/23 Q1003 NOSIG RMK A2962


Listeners: 0 out of 1057 total

Islamabad ATIS: 129.600

OPRN Tower (Archives)
Islamabad, Pakistan

Feed Status: UP

Click on your favorite media player to listen:
Listen with WinAmp to OPRN Tower  Listen with iTunes to OPRN Tower  Click here to listen if using Real Player  Click here to listen if using Windows Media Player

Or simply listen in your browser:

Listen right in your browser(in browser, requires Flash)

OPRN 181800Z 05004KT 9999 FEW250 28/23 Q1003 NOSIG RMK A2962


Listeners: 0 out of 1057 total

Islamabad Tower: 123.700

OPRN Tower/App (Archives)
Islamabad, Pakistan

Feed Status: UP

Click on your favorite media player to listen:
Listen with WinAmp to OPRN Tower/App  Listen with iTunes to OPRN Tower/App  Click here to listen if using Real Player  Click here to listen if using Windows Media Player

Or simply listen in your browser:

Listen right in your browser(in browser, requires Flash)

OPRN 181800Z 05004KT 9999 FEW250 28/23 Q1003 NOSIG RMK A2962


Listeners: 0 out of 1057 total

Islamabad Approach: 124.900
Islamabad Tower: 123.700

RCKH Ground
Kaohsiung, Taiwan

Feed Status: DOWN
Offline since: 2015-05-24 11:58:03 UTC
RCKH 181800Z VRB02KT 9999 FEW015 SCT045 BKN100 26/25 Q1004 NOSIG RMK A2965

Kaohsiung Ground: 121.900

RCKH Tower
Kaohsiung, Taiwan

Feed Status: DOWN
Offline since: 2015-06-03 18:36:03 UTC
RCKH 181800Z VRB02KT 9999 FEW015 SCT045 BKN100 26/25 Q1004 NOSIG RMK A2965

Kaohsiung Tower: 118.700

RCTP Approach
Taipei, Taiwan

Feed Status: DOWN
Offline since: 2018-08-18 03:12:03 UTC
RCTP 181800Z 21005KT 9999 FEW020 BKN060 27/26 Q1003 NOSIG RMK A2962

Emergency/Guard: 121.500
Taipei Approach: 125.100
Taipei Approach: 125.600
Taipei Approach: 128.500

RCTP Tower
Taipei, Taiwan

Feed Status: DOWN
Offline since: 2018-08-18 04:38:03 UTC
RCTP 181800Z 21005KT 9999 FEW020 BKN060 27/26 Q1003 NOSIG RMK A2962

Taipei Tower: 118.700

RJAA Approach (Archives)
Tokyo, Japan

Feed Status: UP

Click on your favorite media player to listen:
Listen with WinAmp to RJAA Approach  Listen with iTunes to RJAA Approach  Click here to listen if using Real Player  Click here to listen if using Windows Media Player

Or simply listen in your browser:

Listen right in your browser(in browser, requires Flash)

RJAA 181800Z 01003KT 9999 FEW025 19/17 Q1014 NOSIG

RJAA Flight Activity (Flightaware)

Listeners: 0 out of 1057 total

Tokyo Approach: 124.400

RJAA Clearance Delivery #1 (Archives)
Tokyo, Japan

Feed Status: UP

Click on your favorite media player to listen:
Listen with WinAmp to RJAA Clearance Delivery #1  Listen with iTunes to RJAA Clearance Delivery #1  Click here to listen if using Real Player  Click here to listen if using Windows Media Player

Or simply listen in your browser:

Listen right in your browser(in browser, requires Flash)

RJAA 181800Z 01003KT 9999 FEW025 19/17 Q1014 NOSIG

RJAA Flight Activity (Flightaware)

Listeners: 0 out of 1057 total

Narita Clearance Delivery: 121.650

RJAA Clearance Delivery #2 (Archives)
Tokyo, Japan

Feed Status: UP

Click on your favorite media player to listen:
Listen with WinAmp to RJAA Clearance Delivery #2  Listen with iTunes to RJAA Clearance Delivery #2  Click here to listen if using Real Player  Click here to listen if using Windows Media Player

Or simply listen in your browser:

Listen right in your browser(in browser, requires Flash)

RJAA 181800Z 01003KT 9999 FEW025 19/17 Q1014 NOSIG

RJAA Flight Activity (Flightaware)

Listeners: 0 out of 1057 total

Narita Clearance Delivery: 121.900

RJAA Departure #1 (Archives)
Tokyo, Japan

Feed Status: UP

Click on your favorite media player to listen:
Listen with WinAmp to RJAA Departure #1  Listen with iTunes to RJAA Departure #1  Click here to listen if using Real Player  Click here to listen if using Windows Media Player

Or simply listen in your browser:

Listen right in your browser(in browser, requires Flash)

RJAA 181800Z 01003KT 9999 FEW025 19/17 Q1014 NOSIG

RJAA Flight Activity (Flightaware)

Listeners: 0 out of 1057 total

Tokyo Departure: 124.200

RJAA Departure #2 (Archives)
Tokyo, Japan

Feed Status: UP

Click on your favorite media player to listen:
Listen with WinAmp to RJAA Departure #2  Listen with iTunes to RJAA Departure #2  Click here to listen if using Real Player  Click here to listen if using Windows Media Player

Or simply listen in your browser:

Listen right in your browser(in browser, requires Flash)

RJAA 181800Z 01003KT 9999 FEW025 19/17 Q1014 NOSIG

RJAA Flight Activity (Flightaware)

Listeners: 0 out of 1057 total

Tokyo Departure: 119.600

RJAA Emergency/Guard (Archives)
Tokyo, Japan

Feed Status: UP

Click on your favorite media player to listen:
Listen with WinAmp to RJAA Emergency/Guard  Listen with iTunes to RJAA Emergency/Guard  Click here to listen if using Real Player  Click here to listen if using Windows Media Player

Or simply listen in your browser:

Listen right in your browser(in browser, requires Flash)

RJAA 181800Z 01003KT 9999 FEW025 19/17 Q1014 NOSIG

RJAA Flight Activity (Flightaware)

Listeners: 0 out of 1057 total

Emergency/Guard: 121.500

RJAA Ground #1 (Archives)
Tokyo, Japan

Feed Status: UP

Click on your favorite media player to listen:
Listen with WinAmp to RJAA Ground #1  Listen with iTunes to RJAA Ground #1  Click here to listen if using Real Player  Click here to listen if using Windows Media Player

Or simply listen in your browser:

Listen right in your browser(in browser, requires Flash)

RJAA 181800Z 01003KT 9999 FEW025 19/17 Q1014 NOSIG

RJAA Flight Activity (Flightaware)

Listeners: 0 out of 1057 total

Narita Ground: 121.850

RJAA Ground #2 (Archives)
Tokyo, Japan

Feed Status: UP

Click on your favorite media player to listen:
Listen with WinAmp to RJAA Ground #2  Listen with iTunes to RJAA Ground #2  Click here to listen if using Real Player  Click here to listen if using Windows Media Player

Or simply listen in your browser:

Listen right in your browser(in browser, requires Flash)

RJAA 181800Z 01003KT 9999 FEW025 19/17 Q1014 NOSIG

RJAA Flight Activity (Flightaware)

Listeners: 0 out of 1057 total

Narita Ground: 121.950

RJAA Radar (Archives)
Tokyo, Japan

Feed Status: UP

Click on your favorite media player to listen:
Listen with WinAmp to RJAA Radar  Listen with iTunes to RJAA Radar  Click here to listen if using Real Player  Click here to listen if using Windows Media Player

Or simply listen in your browser:

Listen right in your browser(in browser, requires Flash)

RJAA 181800Z 01003KT 9999 FEW025 19/17 Q1014 NOSIG

RJAA Flight Activity (Flightaware)

Listeners: 0 out of 1057 total

Tokyo Radar: 120.200

RJAA Ramp #1 (Archives)
Tokyo, Japan

Feed Status: UP

Click on your favorite media player to listen:
Listen with WinAmp to RJAA Ramp #1  Listen with iTunes to RJAA Ramp #1  Click here to listen if using Real Player  Click here to listen if using Windows Media Player

Or simply listen in your browser:

Listen right in your browser(in browser, requires Flash)

RJAA 181800Z 01003KT 9999 FEW025 19/17 Q1014 NOSIG

RJAA Flight Activity (Flightaware)

Listeners: 0 out of 1057 total

Narita Ramp: 121.600

RJAA Ramp #2 (Archives)
Tokyo, Japan

Feed Status: UP

Click on your favorite media player to listen:
Listen with WinAmp to RJAA Ramp #2  Listen with iTunes to RJAA Ramp #2  Click here to listen if using Real Player  Click here to listen if using Windows Media Player

Or simply listen in your browser:

Listen right in your browser(in browser, requires Flash)

RJAA 181800Z 01003KT 9999 FEW025 19/17 Q1014 NOSIG

RJAA Flight Activity (Flightaware)

Listeners: 0 out of 1057 total

Narita Ramp: 121.750

RJAA TCA (Archives)
Tokyo, Japan

Feed Status: UP

Click on your favorite media player to listen:
Listen with WinAmp to RJAA TCA  Listen with iTunes to RJAA TCA  Click here to listen if using Real Player  Click here to listen if using Windows Media Player

Or simply listen in your browser:

Listen right in your browser(in browser, requires Flash)

RJAA 181800Z 01003KT 9999 FEW025 19/17 Q1014 NOSIG

RJAA Flight Activity (Flightaware)

Listeners: 0 out of 1057 total

Tokyo TCA (Terminal Control Area): 119.450

RJAA Tokyo Control (Archives)
Tokyo, Japan

Feed Status: UP

Click on your favorite media player to listen:
Listen with WinAmp to RJAA Tokyo Control  Listen with iTunes to RJAA Tokyo Control  Click here to listen if using Real Player  Click here to listen if using Windows Media Player

Or simply listen in your browser:

Listen right in your browser(in browser, requires Flash)

RJAA 181800Z 01003KT 9999 FEW025 19/17 Q1014 NOSIG

RJAA Flight Activity (Flightaware)

Listeners: 0 out of 1057 total

Tokyo Control: 125.900

RJAA Tower #1 (Archives)
Tokyo, Japan

Feed Status: UP

Click on your favorite media player to listen:
Listen with WinAmp to RJAA Tower #1  Listen with iTunes to RJAA Tower #1  Click here to listen if using Real Player  Click here to listen if using Windows Media Player

Or simply listen in your browser:

Listen right in your browser(in browser, requires Flash)

RJAA 181800Z 01003KT 9999 FEW025 19/17 Q1014 NOSIG

RJAA Flight Activity (Flightaware)

Listeners: 0 out of 1057 total

Narita Tower (Rwy 16R/34L): 118.200

RJAA Tower #2 (Archives)
Tokyo, Japan

Feed Status: UP

Click on your favorite media player to listen:
Listen with WinAmp to RJAA Tower #2  Listen with iTunes to RJAA Tower #2  Click here to listen if using Real Player  Click here to listen if using Windows Media Player

Or simply listen in your browser:

Listen right in your browser(in browser, requires Flash)

RJAA 181800Z 01003KT 9999 FEW025 19/17 Q1014 NOSIG

RJAA Flight Activity (Flightaware)

Listeners: 1 out of 1057 total

Narita Tower (Rwy 16L/34R): 118.350

RJSF RDO (Archives)
Sukagawa, Japan

Feed Status: UP

Click on your favorite media player to listen:
Listen with WinAmp to RJSF RDO  Listen with iTunes to RJSF RDO  Click here to listen if using Real Player  Click here to listen if using Windows Media Player

Or simply listen in your browser:

Listen right in your browser(in browser, requires Flash)

RJSF 181100Z 13006KT 100V160 9999 FEW020 BKN/// 17/14 Q1015

RJSF Flight Activity (Flightaware)

Listeners: 0 out of 1057 total

Fukushima Radio: 118.050

RJTT App/Dep (Archives)
Tokyo, Japan

Feed Status: UP

Click on your favorite media player to listen:
Listen with WinAmp to RJTT App/Dep  Listen with iTunes to RJTT App/Dep  Click here to listen if using Real Player  Click here to listen if using Windows Media Player

Or simply listen in your browser:

Listen right in your browser(in browser, requires Flash)

RJTT 181800Z 05006KT 9999 FEW020 22/18 Q1014 NOSIG

RJTT Flight Activity (Flightaware)

Listeners: 9 out of 1057 total

Tokyo Approach: 119.100
Tokyo Approach: 119.400
Tokyo Departure: 120.800
Tokyo Departure: 126.000

RJTT Approach (Archives)
Tokyo, Japan

Feed Status: UP

Click on your favorite media player to listen:
Listen with WinAmp to RJTT Approach  Listen with iTunes to RJTT Approach  Click here to listen if using Real Player  Click here to listen if using Windows Media Player

Or simply listen in your browser:

Listen right in your browser(in browser, requires Flash)

RJTT 181800Z 05006KT 9999 FEW020 22/18 Q1014 NOSIG

RJTT Flight Activity (Flightaware)

Listeners: 2 out of 1057 total

Tokyo Approach: 119.100
Tokyo Approach: 119.400

RJTT ATIS (Archives)
Tokyo, Japan

Feed Status: UP

Click on your favorite media player to listen:
Listen with WinAmp to RJTT ATIS  Listen with iTunes to RJTT ATIS  Click here to listen if using Real Player  Click here to listen if using Windows Media Player

Or simply listen in your browser:

Listen right in your browser(in browser, requires Flash)

RJTT 181800Z 05006KT 9999 FEW020 22/18 Q1014 NOSIG

RJTT Flight Activity (Flightaware)

Listeners: 0 out of 1057 total

Tokyo ATIS: 128.800

RJTT Company Channels (Archives)
Tokyo, Japan

Feed Status: UP

Click on your favorite media player to listen:
Listen with WinAmp to RJTT Company Channels  Listen with iTunes to RJTT Company Channels  Click here to listen if using Real Player  Click here to listen if using Windows Media Player

Or simply listen in your browser:

Listen right in your browser(in browser, requires Flash)

RJTT 181800Z 05006KT 9999 FEW020 22/18 Q1014 NOSIG

RJTT Flight Activity (Flightaware)

Listeners: 3 out of 1057 total

Company TBD: 128.500
Company TBD: 131.850
Company TBD: 129.725
Company TBD: 129.700
Company TBD: 131.900
Company TBD: 129.850
Company TBD: 128.975
Company TBD: 123.675
Company TBD: 132.075

RJTT Del/Ground (Archives)
Tokyo, Japan

Feed Status: UP

Click on your favorite media player to listen:
Listen with WinAmp to RJTT Del/Ground  Listen with iTunes to RJTT Del/Ground  Click here to listen if using Real Player  Click here to listen if using Windows Media Player

Or simply listen in your browser:

Listen right in your browser(in browser, requires Flash)

RJTT 181800Z 05006KT 9999 FEW020 22/18 Q1014 NOSIG

RJTT Flight Activity (Flightaware)

Listeners: 0 out of 1057 total

Tokyo Clearance Delivery: 121.825
Tokyo Ground: 121.700
Tokyo Ground: 118.225
Tokyo Ground: 121.625
Tokyo Ground: 121.975

RJTT Del/Twr/TCA/Gnd (Archives)
Tokyo, Japan

Feed Status: UP

Click on your favorite media player to listen:
Listen with WinAmp to RJTT Del/Twr/TCA/Gnd  Listen with iTunes to RJTT Del/Twr/TCA/Gnd  Click here to listen if using Real Player  Click here to listen if using Windows Media Player

Or simply listen in your browser:

Listen right in your browser(in browser, requires Flash)

RJTT 181800Z 05006KT 9999 FEW020 22/18 Q1014 NOSIG

RJTT Flight Activity (Flightaware)

Listeners: 4 out of 1057 total

Tokyo Clearance Delivery: 121.825
Tokyo Ground: 121.975
Tokyo Ground: 121.625
Tokyo Ground: 121.700
Tokyo Ground: 118.225
Tokyo TCA: 124.750
Tokyo Tower: 118.100
Tokyo Tower: 118.575
Tokyo Tower: 118.725
Tokyo Tower: 124.350

RJTT Departure (Archives)
Tokyo, Japan

Feed Status: UP

Click on your favorite media player to listen:
Listen with WinAmp to RJTT Departure  Listen with iTunes to RJTT Departure  Click here to listen if using Real Player  Click here to listen if using Windows Media Player

Or simply listen in your browser:

Listen right in your browser(in browser, requires Flash)

RJTT 181800Z 05006KT 9999 FEW020 22/18 Q1014 NOSIG

RJTT Flight Activity (Flightaware)

Listeners: 1 out of 1057 total

Tokyo Departure: 120.800
Tokyo Departure: 126.000

RJTT Tokyo Control (Archives)
Tokyo, Japan

Feed Status: UP

Click on your favorite media player to listen:
Listen with WinAmp to RJTT Tokyo Control  Listen with iTunes to RJTT Tokyo Control  Click here to listen if using Real Player  Click here to listen if using Windows Media Player

Or simply listen in your browser:

Listen right in your browser(in browser, requires Flash)

RJTT 181800Z 05006KT 9999 FEW020 22/18 Q1014 NOSIG

RJTT Flight Activity (Flightaware)

Listeners: 14 out of 1057 total

Tokyo Control: 133.700
Tokyo Control: 125.900
Tokyo Control: 120.500

RJTT Twr/TCA (Archives)
Tokyo, Japan

Feed Status: UP

Click on your favorite media player to listen:
Listen with WinAmp to RJTT Twr/TCA  Listen with iTunes to RJTT Twr/TCA  Click here to listen if using Real Player  Click here to listen if using Windows Media Player

Or simply listen in your browser:

Listen right in your browser(in browser, requires Flash)

RJTT 181800Z 05006KT 9999 FEW020 22/18 Q1014 NOSIG

RJTT Flight Activity (Flightaware)

Listeners: 0 out of 1057 total

Tokyo TCA: 124.750
Tokyo Tower: 118.100
Tokyo Tower: 118.575
Tokyo Tower: 118.725
Tokyo Tower: 124.350

RKSG Gnd/Twr/App (Archives)
Pyeongtaek, Korea, Republic of

Feed Status: UP

Click on your favorite media player to listen:
Listen with WinAmp to RKSG Gnd/Twr/App  Listen with iTunes to RKSG Gnd/Twr/App  Click here to listen if using Real Player  Click here to listen if using Windows Media Player

Or simply listen in your browser:

Listen right in your browser(in browser, requires Flash)

RKSG 181756Z AUTO 00000KT 10SM CLR 22/20 A2982 RMK AO2 SLP100 T02180201 10266 20217 52004 $

RKSG Flight Activity (Flightaware)

Listeners: 1 out of 1057 total

Desiderio Final: 255.800
Desiderio GCA: 226.800
Desiderio GCA: 127.000
Desiderio Ground (Camp Humphreys A-511 AAF): 119.500
Desiderio Ground UHF: 229.700
Desiderio Ops: 294.100
Desiderio Tower (Camp Humphreys A-511 AAF): 122.500
Desiderio Tower UHF: 257.800

RKRR Incheon Control (Archives)
Incheon, Korea, Republic of

Feed Status: UP

Click on your favorite media player to listen:
Listen with WinAmp to RKRR Incheon Control  Listen with iTunes to RKRR Incheon Control  Click here to listen if using Real Player  Click here to listen if using Windows Media Player

Or simply listen in your browser:

Listen right in your browser(in browser, requires Flash)

RKSI 181800Z 03002KT CAVOK 25/16 Q1010 NOSIG

RKSI Flight Activity (Flightaware)

Listeners: 6 out of 1057 total

Incheon Control North Sector (Primary): 128.700
Incheon Control North Sector (Secondary): 132.800
Incheon Control Northwest Sector (Primary): 126.175
Incheon Control Northwest Sector (Secondary): 123.725

RKSO Gnd/Twr/App (Archives)
Pyeongtaek, Korea, Republic of

Feed Status: UP

Click on your favorite media player to listen:
Listen with WinAmp to RKSO Gnd/Twr/App  Listen with iTunes to RKSO Gnd/Twr/App  Click here to listen if using Real Player  Click here to listen if using Windows Media Player

Or simply listen in your browser:

Listen right in your browser(in browser, requires Flash)

RKSO 181758Z 10006KT 7SM BKN260 21/17 A2982 RMK AO2A SLP101 T02090167 10261 20208 51005 $

RKSO Flight Activity (Flightaware)

Listeners: 2 out of 1057 total

25 FS Ops: 229.000
36FS Ops: 371.300
Osan Air Base Approach/Departure: 127.900
Osan Air Base Approach/Departure: 133.650
Osan Air Base Ground: 132.450
Osan Air Base Tower: 122.100
Osan App/Dep UHF: 306.600
Osan App/Dep UHF: 234.300
Osan App/Dep UHF (possibly inactive): 306.300
Osan App/Dep UHF (possibly inactive): 363.100
Osan Ground UHF: 253.700
Osan SAR: 282.800
Osan SAR: 381.000
Osan SOF: 299.800
Osan Tower UHF: 308.800
Stallion Ops: 276.200

RPLL Clearance Delivery (Archives)
Manila, Philippines

Feed Status: UP

Click on your favorite media player to listen:
Listen with WinAmp to RPLL Clearance Delivery  Listen with iTunes to RPLL Clearance Delivery  Click here to listen if using Real Player  Click here to listen if using Windows Media Player

Or simply listen in your browser:

Listen right in your browser(in browser, requires Flash)

RPLL 181800Z VRB02KT 9999 SCT020 BKN090 25/25 Q1007 NOSIG RMK A2974

RPLL Flight Activity (Flightaware)

Listeners: 0 out of 1057 total

Manila Clearance Delivery: 125.100
Manila Clearance Delivery: 125.500

RPLL Ground (Archives)
Manila, Philippines

Feed Status: UP

Click on your favorite media player to listen:
Listen with WinAmp to RPLL Ground  Listen with iTunes to RPLL Ground  Click here to listen if using Real Player  Click here to listen if using Windows Media Player

Or simply listen in your browser:

Listen right in your browser(in browser, requires Flash)

RPLL 181800Z VRB02KT 9999 SCT020 BKN090 25/25 Q1007 NOSIG RMK A2974

RPLL Flight Activity (Flightaware)

Listeners: 7 out of 1057 total

Manila Ground: 121.700
Manila Ground: 121.800
Manila Ground: 121.900

RPLL Tower (Archives)
Manila, Philippines

Feed Status: UP

Click on your favorite media player to listen:
Listen with WinAmp to RPLL Tower  Listen with iTunes to RPLL Tower  Click here to listen if using Real Player  Click here to listen if using Windows Media Player

Or simply listen in your browser:

Listen right in your browser(in browser, requires Flash)

RPLL 181800Z VRB02KT 9999 SCT020 BKN090 25/25 Q1007 NOSIG RMK A2974

RPLL Flight Activity (Flightaware)

Listeners: 14 out of 1057 total

Manila Tower: 118.100

RPUN Tower
Pili-Luzon Island, Philippines

Feed Status: DOWN
Offline since: 2017-10-02 10:34:03 UTC
METAR NOT AVAILABLE

Naga Tower: 122.100

HF CWP/SEA (Archives)
Pyeongtaek, Korea, Republic of

Feed Status: UP

Click on your favorite media player to listen:
Listen with WinAmp to HF CWP/SEA  Listen with iTunes to HF CWP/SEA  Click here to listen if using Real Player  Click here to listen if using Windows Media Player

Or simply listen in your browser:

Listen right in your browser(in browser, requires Flash)


Listeners: 0 out of 1057 total

CWP 1 (Tokyo): 11.384
CWP 1/2 (Tokyo): 13.300
CWP-1/2 (San Francisco): 17.904
CWP-1/2 (Tokyo/Manila): 8.903
CWP-1/2 (Tokyo/San Francisco): 21.985
SEA-2 (Manila): 8.942

Receiver location: Seoul, Korea

UAAA Approach (Archives)
Almaty, Kazakhstan

Feed Status: UP

Click on your favorite media player to listen:
Listen with WinAmp to UAAA Approach  Listen with iTunes to UAAA Approach  Click here to listen if using Real Player  Click here to listen if using Windows Media Player

Or simply listen in your browser:

Listen right in your browser(in browser, requires Flash)

UAAA 181800Z VRB01MPS 9999 SCT100 19/11 Q1007 R23L/CLRD65 NOSIG

UAAA Flight Activity (Flightaware)

Listeners: 0 out of 1057 total

Almaty Approach: 124.800

UAAA Tower (Archives)
Almaty, Kazakhstan

Feed Status: UP

Click on your favorite media player to listen:
Listen with WinAmp to UAAA Tower  Listen with iTunes to UAAA Tower  Click here to listen if using Real Player  Click here to listen if using Windows Media Player

Or simply listen in your browser:

Listen right in your browser(in browser, requires Flash)

UAAA 181800Z VRB01MPS 9999 SCT100 19/11 Q1007 R23L/CLRD65 NOSIG

UAAA Flight Activity (Flightaware)

Listeners: 0 out of 1057 total

Almaty Tower: 119.400

UAAA Tower/Approach (Archives)
Almaty, Kazakhstan

Feed Status: UP

Click on your favorite media player to listen:
Listen with WinAmp to UAAA Tower/Approach  Listen with iTunes to UAAA Tower/Approach  Click here to listen if using Real Player  Click here to listen if using Windows Media Player

Or simply listen in your browser:

Listen right in your browser(in browser, requires Flash)

UAAA 181800Z VRB01MPS 9999 SCT100 19/11 Q1007 R23L/CLRD65 NOSIG

UAAA Flight Activity (Flightaware)

Listeners: 0 out of 1057 total

Almaty Approach: 124.800
Almaty Tower: 119.400

UNNT Gnd/Twr/App/Radar/Misc (Archives)
Novosibirsk, Russia

Feed Status: UP

Click on your favorite media player to listen:
Listen with WinAmp to UNNT Gnd/Twr/App/Radar/Misc  Listen with iTunes to UNNT Gnd/Twr/App/Radar/Misc  Click here to listen if using Real Player  Click here to listen if using Windows Media Player

Or simply listen in your browser:

Listen right in your browser(in browser, requires Flash)

UNNT 181800Z 20003MPS CAVOK 20/15 Q1009 R25/090070 R16/090070 NOSIG RMK QFE747/0996

UNNT Flight Activity (Flightaware)

Listeners: 3 out of 1057 total

ACC_Novosibirsk-Control [5th military channel]: 128.500
ACC_Novosibirsk-Control [Southeast]: 126.100
ACC_Novosibirsk-Control [West]: 127.000
GPA_Kristallik [Severniy airfield]: 123.425
GPA_Sernisiy [Chkalovskiy airfield]: 124.750
GPA_Tomsk Information 1: 134.500
MIL_3 [3rd military channel]: 130.750
MIL_Larek [Shilovo facility]: 123.750
MIL_Maneken [Chkalovskiy airfield]: 123.550
MIL_Novosibirsk-1 [1st military channel]: 124.000
MIL_Noyabr' 31: 124.900
MIL_Trimaran: 124.500
SP_Air-to-Air: 123.450
SP_Air-to-Air 2: 123.400
SP_Common backup frequency: 129.000
SP_Emergency: 121.500
SP_Emergency 2: 123.100
SP_Flyoff: 124.375
SURF_Boarding: 163.425
SURF_Duty chart: 163.800
SURF_O&D Service: 163.325
SURF_Search & Rescue: 164.000
SURF_Security: 163.750
SURF_Tower surf: 163.650
SURF_Vehicles: 163.850
UNNT_Backup frequency: 127.100
UNNT_Novosibirsk-Approach: 127.500
UNNT_Novosibirsk-Ground: 121.700
UNNT_Novosibirsk-Radar: 122.000
UNNT_Novosibirsk-Tower: 118.500
UNNT_Novosibirsk-Transit: 131.600
UNNT_S7 FOCC: 131.925

UNOO Gnd/Tower/App (Archives)
Omsk, Russia

Feed Status: UP

Click on your favorite media player to listen:
Listen with WinAmp to UNOO Gnd/Tower/App  Listen with iTunes to UNOO Gnd/Tower/App  Click here to listen if using Real Player  Click here to listen if using Windows Media Player

Or simply listen in your browser:

Listen right in your browser(in browser, requires Flash)

UNOO 181800Z 29003MPS CAVOK 11/08 Q1011 R25/CLRD60 NOSIG RMK QFE750

UNOO Flight Activity (Flightaware)

Listeners: 0 out of 1057 total

Aerodrom Kalachevo: 123.300
Aerodrom Marianovka: 123.000
Emergency/Guard: 121.500
Novosibirsk Control (Sector 7): 132.500
Novosibirsk Control (Sector 8): 132.900
Omsk Approach (FL060-FL265): 131.200
Omsk Apron: 118.800
Omsk Start/Radar: 119.000
Omsk Taxiing: 121.700
Omsk Transit: 131.700
UNOS/OMSK-Severny: 124.000

UNTT Gnd/Info/Radar/Control (Archives)
Tomsk, Russia

Feed Status: UP

Click on your favorite media player to listen:
Listen with WinAmp to UNTT Gnd/Info/Radar/Control  Listen with iTunes to UNTT Gnd/Info/Radar/Control  Click here to listen if using Real Player  Click here to listen if using Windows Media Player

Or simply listen in your browser:

Listen right in your browser(in browser, requires Flash)

UNTT Flight Activity (Flightaware)

Listeners: 2 out of 1057 total

Common Backup Frequency: 129.000
Emergency/Guard: 121.500
Novosibirsk Control (Sector 2): 126.100
Novosibirsk Control (Sector 3): 129.300
Novosibirsk Control (Sector 5): 132.300
Tomsk Ground: 118.800
Tomsk Information 1: 134.500
Tomsk Krug (Radar): 127.300
Tomsk Transit: 131.875
Troynik (Golovino): 122.400

USCC Twr/App/Control (Archives)
Chelyabinsk, Russia

Feed Status: UP

Click on your favorite media player to listen:
Listen with WinAmp to USCC Twr/App/Control  Listen with iTunes to USCC Twr/App/Control  Click here to listen if using Real Player  Click here to listen if using Windows Media Player

Or simply listen in your browser:

Listen right in your browser(in browser, requires Flash)

USCC 181800Z 33003MPS 9999 SCT040CB 10/08 Q1017 R27/000060 NOSIG RMK QFE743

USCC Flight Activity (Flightaware)

Listeners: 0 out of 1057 total

Airfield Services: 163.380
Airfield Services: 163.500
Airfield Services: 163.950
Airfield Services: 164.150
Chelyabinsk Approach: 124.700
Chelyabinsk Control (North): 125.400
Chelyabinsk Control (South): 125.500
Chelyabinsk Tower: 125.200
Chelyabinsk Transit: 131.600
Emergency/Guard: 121.500

USTR Gnd/Twr/App (Archives)
Tyumen, Russia

Feed Status: UP

Click on your favorite media player to listen:
Listen with WinAmp to USTR Gnd/Twr/App  Listen with iTunes to USTR Gnd/Twr/App  Click here to listen if using Real Player  Click here to listen if using Windows Media Player

Or simply listen in your browser:

Listen right in your browser(in browser, requires Flash)

USTR 181800Z 32003MPS 9999 SCT043CB 11/09 Q1016 R30/CLRD65 NOSIG RMK QFE753/1004

USTR Flight Activity (Flightaware)

Listeners: 0 out of 1057 total

Tyumen Approach: 126.100
Tyumen Control: 132.600
Tyumen Control: 133.600
Tyumen Info (Regional): 133.400
Tyumen Start: 118.200
Tyumen Transit: 131.800

USUU Twr/App/Control (Archives)
Kurgan, Russia

Feed Status: UP

Click on your favorite media player to listen:
Listen with WinAmp to USUU Twr/App/Control  Listen with iTunes to USUU Twr/App/Control  Click here to listen if using Real Player  Click here to listen if using Windows Media Player

Or simply listen in your browser:

Listen right in your browser(in browser, requires Flash)

USUU Flight Activity (Flightaware)

Listeners: 0 out of 1057 total

Aerodromnaya 50: 164.100
Baggage Handling: 164.025
Kurgan Approach: 120.300
Kurgan Tower: 134.300
Kurgan/USUU Transit: 131.700
Kurtamysh: 122.450
Ural Control Sector 4: 119.700
USUL Tower: 129.600

VCBI Director
Colombo, Sri Lanka

Feed Status: DOWN
Offline since: 2018-08-18 18:02:03 UTC
VCBI 181810Z 25005KT 210V300 9999 FEW017 BKN030 25/23 Q1010 NOSIG

Colombo Director: 132.400

VCBI Tower
Colombo, Sri Lanka

Feed Status: DOWN
Offline since: 2018-05-03 11:26:03 UTC
VCBI 181810Z 25005KT 210V300 9999 FEW017 BKN030 25/23 Q1010 NOSIG

Colombo Tower: 118.700

VHHH Approach 119.1 #1 (Archives)
Hong Kong, Hong Kong

Feed Status: UP

Click on your favorite media player to listen:
Listen with WinAmp to VHHH Approach 119.1 #1  Listen with iTunes to VHHH Approach 119.1 #1  Click here to listen if using Real Player  Click here to listen if using Windows Media Player

Or simply listen in your browser:

Listen right in your browser(in browser, requires Flash)

VHHH 181830Z 16005KT 9999 FEW012 SCT028 28/25 Q1001 NOSIG

VHHH Flight Activity (Flightaware)

Listeners: 0 out of 1057 total

Hong Kong Approach: 119.100

VHHH Approach 119.1 #2 (Archives)
Hong Kong, Hong Kong

Feed Status: UP

Click on your favorite media player to listen:
Listen with WinAmp to VHHH Approach 119.1 #2  Listen with iTunes to VHHH Approach 119.1 #2  Click here to listen if using Real Player  Click here to listen if using Windows Media Player

Or simply listen in your browser:

Listen right in your browser(in browser, requires Flash)

VHHH 181830Z 16005KT 9999 FEW012 SCT028 28/25 Q1001 NOSIG

VHHH Flight Activity (Flightaware)

Listeners: 1 out of 1057 total

Hong Kong Approach: 119.100

VHHH ATIS (Archives)
Hong Kong, Hong Kong

Feed Status: UP

Click on your favorite media player to listen:
Listen with WinAmp to VHHH ATIS  Listen with iTunes to VHHH ATIS  Click here to listen if using Real Player  Click here to listen if using Windows Media Player

Or simply listen in your browser:

Listen right in your browser(in browser, requires Flash)

VHHH 181830Z 16005KT 9999 FEW012 SCT028 28/25 Q1001 NOSIG

VHHH Flight Activity (Flightaware)

Listeners: 0 out of 1057 total

Hong Kong Arrival ATIS: 128.200

VHHH Clearance Delivery (Archives)
Hong Kong, Hong Kong

Feed Status: UP

Click on your favorite media player to listen:
Listen with WinAmp to VHHH Clearance Delivery  Listen with iTunes to VHHH Clearance Delivery  Click here to listen if using Real Player  Click here to listen if using Windows Media Player

Or simply listen in your browser:

Listen right in your browser(in browser, requires Flash)

VHHH 181830Z 16005KT 9999 FEW012 SCT028 28/25 Q1001 NOSIG

VHHH Flight Activity (Flightaware)

Listeners: 0 out of 1057 total

Hong Kong Clearance Delivery: 129.900

VHHH Departure (Primary) (Archives)
Hong Kong, Hong Kong

Feed Status: UP

Click on your favorite media player to listen:
Listen with WinAmp to VHHH Departure (Primary)  Listen with iTunes to VHHH Departure (Primary)  Click here to listen if using Real Player  Click here to listen if using Windows Media Player

Or simply listen in your browser:

Listen right in your browser(in browser, requires Flash)

VHHH 181830Z 16005KT 9999 FEW012 SCT028 28/25 Q1001 NOSIG

VHHH Flight Activity (Flightaware)

Listeners: 3 out of 1057 total

Hong Kong Departure: 123.800

VHHH Director #1 (Archives)
Hong Kong, Hong Kong

Feed Status: UP

Click on your favorite media player to listen:
Listen with WinAmp to VHHH Director #1  Listen with iTunes to VHHH Director #1  Click here to listen if using Real Player  Click here to listen if using Windows Media Player

Or simply listen in your browser:

Listen right in your browser(in browser, requires Flash)

VHHH 181830Z 16005KT 9999 FEW012 SCT028 28/25 Q1001 NOSIG

VHHH Flight Activity (Flightaware)

Listeners: 0 out of 1057 total

Hong Kong Director: 119.500

VHHH Director #2 (Archives)
Hong Kong, Hong Kong

Feed Status: UP

Click on your favorite media player to listen:
Listen with WinAmp to VHHH Director #2  Listen with iTunes to VHHH Director #2  Click here to listen if using Real Player  Click here to listen if using Windows Media Player

Or simply listen in your browser:

Listen right in your browser(in browser, requires Flash)

VHHH 181830Z 16005KT 9999 FEW012 SCT028 28/25 Q1001 NOSIG

VHHH Flight Activity (Flightaware)

Listeners: 0 out of 1057 total

Hong Kong Director: 119.500

VHHH Ground (Archives)
Hong Kong, Hong Kong

Feed Status: UP

Click on your favorite media player to listen:
Listen with WinAmp to VHHH Ground  Listen with iTunes to VHHH Ground  Click here to listen if using Real Player  Click here to listen if using Windows Media Player

Or simply listen in your browser:

Listen right in your browser(in browser, requires Flash)

VHHH 181830Z 16005KT 9999 FEW012 SCT028 28/25 Q1001 NOSIG

VHHH Flight Activity (Flightaware)

Listeners: 0 out of 1057 total

Hong Kong Ground (North): 121.600
Hong Kong Ground (South): 122.550

VHHH Ground (North) (Archives)
Hong Kong, Hong Kong

Feed Status: UP

Click on your favorite media player to listen:
Listen with WinAmp to VHHH Ground (North)  Listen with iTunes to VHHH Ground (North)  Click here to listen if using Real Player  Click here to listen if using Windows Media Player

Or simply listen in your browser:

Listen right in your browser(in browser, requires Flash)

VHHH 181830Z 16005KT 9999 FEW012 SCT028 28/25 Q1001 NOSIG

VHHH Flight Activity (Flightaware)

Listeners: 0 out of 1057 total

Hong Kong Ground (North): 121.600

VHHH Ground (South) (Archives)
Hong Kong, Hong Kong

Feed Status: UP

Click on your favorite media player to listen:
Listen with WinAmp to VHHH Ground (South)  Listen with iTunes to VHHH Ground (South)  Click here to listen if using Real Player  Click here to listen if using Windows Media Player

Or simply listen in your browser:

Listen right in your browser(in browser, requires Flash)

VHHH 181830Z 16005KT 9999 FEW012 SCT028 28/25 Q1001 NOSIG

VHHH Flight Activity (Flightaware)

Listeners: 1 out of 1057 total

Hong Kong Ground (South): 122.550

VHHH Tower (Archives)
Hong Kong, Hong Kong

Feed Status: UP

Click on your favorite media player to listen:
Listen with WinAmp to VHHH Tower  Listen with iTunes to VHHH Tower  Click here to listen if using Real Player  Click here to listen if using Windows Media Player

Or simply listen in your browser:

Listen right in your browser(in browser, requires Flash)

VHHH 181830Z 16005KT 9999 FEW012 SCT028 28/25 Q1001 NOSIG

VHHH Flight Activity (Flightaware)

Listeners: 1 out of 1057 total

Hong Kong Tower (North): 118.200
Hong Kong Tower (South): 118.400

VHHH Tower (North) (Archives)
Hong Kong, Hong Kong

Feed Status: UP

Click on your favorite media player to listen:
Listen with WinAmp to VHHH Tower (North)  Listen with iTunes to VHHH Tower (North)  Click here to listen if using Real Player  Click here to listen if using Windows Media Player

Or simply listen in your browser:

Listen right in your browser(in browser, requires Flash)

VHHH 181830Z 16005KT 9999 FEW012 SCT028 28/25 Q1001 NOSIG

VHHH Flight Activity (Flightaware)

Listeners: 0 out of 1057 total

Hong Kong Tower (North): 118.200

VHHH Tower (South) (Archives)
Hong Kong, Hong Kong

Feed Status: UP

Click on your favorite media player to listen:
Listen with WinAmp to VHHH Tower (South)  Listen with iTunes to VHHH Tower (South)  Click here to listen if using Real Player  Click here to listen if using Windows Media Player

Or simply listen in your browser:

Listen right in your browser(in browser, requires Flash)

VHHH 181830Z 16005KT 9999 FEW012 SCT028 28/25 Q1001 NOSIG

VHHH Flight Activity (Flightaware)

Listeners: 1 out of 1057 total

Hong Kong Tower (South): 118.400

VHHH Zone (Archives)
Hong Kong, Hong Kong

Feed Status: UP

Click on your favorite media player to listen:
Listen with WinAmp to VHHH Zone  Listen with iTunes to VHHH Zone  Click here to listen if using Real Player  Click here to listen if using Windows Media Player

Or simply listen in your browser:

Listen right in your browser(in browser, requires Flash)

VHHH 181830Z 16005KT 9999 FEW012 SCT028 28/25 Q1001 NOSIG

VHHH Flight Activity (Flightaware)

Listeners: 0 out of 1057 total

Hong Kong Zone: 120.600

VNKT Twr/App/Control
Kathmandu, Nepal

Feed Status: DOWN
Offline since: 2018-03-13 04:51:02 UTC
VNKT 181820Z 00000KT 7000 FEW010 FEW025CB SCT030 BKN100 23/22 Q1010 NOSIG CB TO S AND SW

Kathmandu Approach: 120.600
Kathmandu Control: 126.500
Kathmandu Tower: 118.100

NOTE: Airport closes from 19:00 UTC to 00:00 UTC

VTBS Approach (East) (Archives)
Bangkok, Thailand

Feed Status: UP

Click on your favorite media player to listen:
Listen with WinAmp to VTBS Approach (East)  Listen with iTunes to VTBS Approach (East)  Click here to listen if using Real Player  Click here to listen if using Windows Media Player

Or simply listen in your browser:

Listen right in your browser(in browser, requires Flash)

VTBS 181800Z 18007KT 9999 FEW030 SCT050 27/23 Q1005 NOSIG

VTBS Flight Activity (Flightaware)

Listeners: 0 out of 1057 total

Bangkok Approach (East): 122.350

VTBS Approach (North) (Archives)
Bangkok, Thailand

Feed Status: UP

Click on your favorite media player to listen:
Listen with WinAmp to VTBS Approach (North)  Listen with iTunes to VTBS Approach (North)  Click here to listen if using Real Player  Click here to listen if using Windows Media Player

Or simply listen in your browser:

Listen right in your browser(in browser, requires Flash)

VTBS 181800Z 18007KT 9999 FEW030 SCT050 27/23 Q1005 NOSIG

VTBS Flight Activity (Flightaware)

Listeners: 0 out of 1057 total

Bangkok Approach (North): 121.700

VTBS Approach 119.1 (Archives)
Bangkok, Thailand

Feed Status: UP

Click on your favorite media player to listen:
Listen with WinAmp to VTBS Approach 119.1  Listen with iTunes to VTBS Approach 119.1  Click here to listen if using Real Player  Click here to listen if using Windows Media Player

Or simply listen in your browser:

Listen right in your browser(in browser, requires Flash)

VTBS 181800Z 18007KT 9999 FEW030 SCT050 27/23 Q1005 NOSIG

VTBS Flight Activity (Flightaware)

Listeners: 0 out of 1057 total

Bangkok Approach: 119.100

VTBS Approach 119.4 (Archives)
Bangkok, Thailand

Feed Status: UP

Click on your favorite media player to listen:
Listen with WinAmp to VTBS Approach 119.4  Listen with iTunes to VTBS Approach 119.4  Click here to listen if using Real Player  Click here to listen if using Windows Media Player

Or simply listen in your browser:

Listen right in your browser(in browser, requires Flash)

VTBS 181800Z 18007KT 9999 FEW030 SCT050 27/23 Q1005 NOSIG

VTBS Flight Activity (Flightaware)

Listeners: 0 out of 1057 total

Bangkok Approach: 119.400

VTBS Approach 120.3 (Archives)
Bangkok, Thailand

Feed Status: UP

Click on your favorite media player to listen:
Listen with WinAmp to VTBS Approach 120.3  Listen with iTunes to VTBS Approach 120.3  Click here to listen if using Real Player  Click here to listen if using Windows Media Player

Or simply listen in your browser:

Listen right in your browser(in browser, requires Flash)

VTBS 181800Z 18007KT 9999 FEW030 SCT050 27/23 Q1005 NOSIG

VTBS Flight Activity (Flightaware)

Listeners: 0 out of 1057 total

Bangkok Approach: 120.300

VTBS Approach/Arrival (Archives)
Bangkok, Thailand

Feed Status: UP

Click on your favorite media player to listen:
Listen with WinAmp to VTBS Approach/Arrival  Listen with iTunes to VTBS Approach/Arrival  Click here to listen if using Real Player  Click here to listen if using Windows Media Player

Or simply listen in your browser:

Listen right in your browser(in browser, requires Flash)

VTBS 181800Z 18007KT 9999 FEW030 SCT050 27/23 Q1005 NOSIG

VTBS Flight Activity (Flightaware)

Listeners: 0 out of 1057 total

Bangkok Approach: 124.350
Bangkok Approach: 125.200
Bangkok Approach: 124.700
Bangkok Approach: 126.300
Bangkok Approach: 133.400
Bangkok Arrival (VTBD): 125.500

VTBS Arrival 121.1 (Archives)
Bangkok, Thailand

Feed Status: UP

Click on your favorite media player to listen:
Listen with WinAmp to VTBS Arrival 121.1  Listen with iTunes to VTBS Arrival 121.1  Click here to listen if using Real Player  Click here to listen if using Windows Media Player

Or simply listen in your browser:

Listen right in your browser(in browser, requires Flash)

VTBS 181800Z 18007KT 9999 FEW030 SCT050 27/23 Q1005 NOSIG

VTBS Flight Activity (Flightaware)

Listeners: 0 out of 1057 total

Bangkok Arrival: 121.100

VTBS ATIS (Archives)
Bangkok, Thailand

Feed Status: UP

Click on your favorite media player to listen:
Listen with WinAmp to VTBS ATIS  Listen with iTunes to VTBS ATIS  Click here to listen if using Real Player  Click here to listen if using Windows Media Player

Or simply listen in your browser:

Listen right in your browser(in browser, requires Flash)

VTBS 181800Z 18007KT 9999 FEW030 SCT050 27/23 Q1005 NOSIG

VTBS Flight Activity (Flightaware)

Listeners: 0 out of 1057 total

Bangkok D-ATIS: 133.600

VTBS Control (FIR) (Archives)
Bangkok, Thailand

Feed Status: UP

Click on your favorite media player to listen:
Listen with WinAmp to VTBS Control (FIR)  Listen with iTunes to VTBS Control (FIR)  Click here to listen if using Real Player  Click here to listen if using Windows Media Player

Or simply listen in your browser:

Listen right in your browser(in browser, requires Flash)

VTBS 181800Z 18007KT 9999 FEW030 SCT050 27/23 Q1005 NOSIG

VTBS Flight Activity (Flightaware)

Listeners: 0 out of 1057 total

Bangkok FIR (Sector 3): 135.500

VTBS Departure (Archives)
Bangkok, Thailand

Feed Status: UP

Click on your favorite media player to listen:
Listen with WinAmp to VTBS Departure  Listen with iTunes to VTBS Departure  Click here to listen if using Real Player  Click here to listen if using Windows Media Player

Or simply listen in your browser:

Listen right in your browser(in browser, requires Flash)

VTBS 181800Z 18007KT 9999 FEW030 SCT050 27/23 Q1005 NOSIG

VTBS Flight Activity (Flightaware)

Listeners: 0 out of 1057 total

Bangkok Departure: 119.250

VTBS Ground (East) (Archives)
Bangkok, Thailand

Feed Status: UP

Click on your favorite media player to listen:
Listen with WinAmp to VTBS Ground (East)  Listen with iTunes to VTBS Ground (East)  Click here to listen if using Real Player  Click here to listen if using Windows Media Player

Or simply listen in your browser:

Listen right in your browser(in browser, requires Flash)

VTBS 181800Z 18007KT 9999 FEW030 SCT050 27/23 Q1005 NOSIG

VTBS Flight Activity (Flightaware)

Listeners: 0 out of 1057 total

Bangkok Ground (East): 121.650

VTBS Ground (Main) (Archives)
Bangkok, Thailand

Feed Status: UP

Click on your favorite media player to listen:
Listen with WinAmp to VTBS Ground (Main)  Listen with iTunes to VTBS Ground (Main)  Click here to listen if using Real Player  Click here to listen if using Windows Media Player

Or simply listen in your browser:

Listen right in your browser(in browser, requires Flash)

VTBS 181800Z 18007KT 9999 FEW030 SCT050 27/23 Q1005 NOSIG

VTBS Flight Activity (Flightaware)

Listeners: 0 out of 1057 total

Bangkok Ground (Main): 121.750

VTBS Ground (West) (Archives)
Bangkok, Thailand

Feed Status: UP

Click on your favorite media player to listen:
Listen with WinAmp to VTBS Ground (West)  Listen with iTunes to VTBS Ground (West)  Click here to listen if using Real Player  Click here to listen if using Windows Media Player

Or simply listen in your browser:

Listen right in your browser(in browser, requires Flash)

VTBS 181800Z 18007KT 9999 FEW030 SCT050 27/23 Q1005 NOSIG

VTBS Flight Activity (Flightaware)

Listeners: 0 out of 1057 total

Bangkok Ground (West): 121.950

VTBS Tower (Archives)
Bangkok, Thailand

Feed Status: UP

Click on your favorite media player to listen:
Listen with WinAmp to VTBS Tower  Listen with iTunes to VTBS Tower  Click here to listen if using Real Player  Click here to listen if using Windows Media Player

Or simply listen in your browser:

Listen right in your browser(in browser, requires Flash)

VTBS 181800Z 18007KT 9999 FEW030 SCT050 27/23 Q1005 NOSIG

VTBS Flight Activity (Flightaware)

Listeners: 0 out of 1057 total

Bangkok Tower (Rwy 01L/19R): 119.000
Bangkok Tower (Rwy 01R/19L): 118.200

VTBS Tower (Rwy 01L/19R) (Archives)
Bangkok, Thailand

Feed Status: UP

Click on your favorite media player to listen:
Listen with WinAmp to VTBS Tower (Rwy 01L/19R)  Listen with iTunes to VTBS Tower (Rwy 01L/19R)  Click here to listen if using Real Player  Click here to listen if using Windows Media Player

Or simply listen in your browser:

Listen right in your browser(in browser, requires Flash)

VTBS 181800Z 18007KT 9999 FEW030 SCT050 27/23 Q1005 NOSIG

VTBS Flight Activity (Flightaware)

Listeners: 0 out of 1057 total

Bangkok Tower (Rwy 01L/19R): 119.000

VTBS Tower (Rwy 01R/19L) (Archives)
Bangkok, Thailand

Feed Status: UP

Click on your favorite media player to listen:
Listen with WinAmp to VTBS Tower (Rwy 01R/19L)  Listen with iTunes to VTBS Tower (Rwy 01R/19L)  Click here to listen if using Real Player  Click here to listen if using Windows Media Player

Or simply listen in your browser:

Listen right in your browser(in browser, requires Flash)

VTBS 181800Z 18007KT 9999 FEW030 SCT050 27/23 Q1005 NOSIG

VTBS Flight Activity (Flightaware)

Listeners: 0 out of 1057 total

Bangkok Tower (Rwy 01R/19L): 118.200

VTSS Approach (Archives)
Songkhla, Thailand

Feed Status: UP

Click on your favorite media player to listen:
Listen with WinAmp to VTSS Approach  Listen with iTunes to VTSS Approach  Click here to listen if using Real Player  Click here to listen if using Windows Media Player

Or simply listen in your browser:

Listen right in your browser(in browser, requires Flash)

VTSS 181800Z 24003KT 9999 FEW020 27/24 Q1007 NOSIG

VTSS Flight Activity (Flightaware)

Listeners: 0 out of 1057 total

Hat Yai Approach: 126.700

WARR Gnd/Twr/Radar (Archives)
Surabaya, Indonesia

Feed Status: UP

Click on your favorite media player to listen:
Listen with WinAmp to WARR Gnd/Twr/Radar  Listen with iTunes to WARR Gnd/Twr/Radar  Click here to listen if using Real Player  Click here to listen if using Windows Media Player

Or simply listen in your browser:

Listen right in your browser(in browser, requires Flash)

WARR 181700Z 25007KT 8000 FEW020 24/20 Q1011 NOSIG


Listeners: 0 out of 1057 total

Juanda Ground: 119.150
Juanda Tower: 118.300
Surabaya Director: 123.200
Surabaya East Control: 124.000
Surabaya West Control: 125.100

WBKK Gnd/Twr/App (Archives)
Kota Kinabalu, Malaysia

Feed Status: UP

Click on your favorite media player to listen:
Listen with WinAmp to WBKK Gnd/Twr/App  Listen with iTunes to WBKK Gnd/Twr/App  Click here to listen if using Real Player  Click here to listen if using Windows Media Player

Or simply listen in your browser:

Listen right in your browser(in browser, requires Flash)

WBKK 181800Z 12004KT 080V140 9999 FEW014 SCT140 BKN270 27/20 Q1008 NOSIG


Listeners: 0 out of 1057 total

Kinabalu Director: 119.100
Kinabalu Ground: 121.600
Kinabalu Radar: 126.100
Kinabalu Radar: 132.450
Kinabalu Tower: 118.300

WMKB Radar (Archives)
Penang, Malaysia

Feed Status: UP

Click on your favorite media player to listen:
Listen with WinAmp to WMKB Radar  Listen with iTunes to WMKB Radar  Click here to listen if using Real Player  Click here to listen if using Windows Media Player

Or simply listen in your browser:

Listen right in your browser(in browser, requires Flash)

WMKB 181800Z VRB02KT 8000 SCT025 SCT140 BKN280 29/26 Q1006 NOSIG


Listeners: 1 out of 1057 total

Butterworth Radar: 125.800

WMKK Lumpur Control/Radar (East)
Sepang, Malaysia

Feed Status: DOWN
Offline since: 2018-08-18 18:42:04 UTC
WMKK 181800Z 15004KT 090V210 9999 FEW017CB BKN290 26/22 Q1008 NOSIG

Lumpur Contro/Radar (East): 134.250

WMKP Ground (Archives)
Penang, Malaysia

Feed Status: UP

Click on your favorite media player to listen:
Listen with WinAmp to WMKP Ground  Listen with iTunes to WMKP Ground  Click here to listen if using Real Player  Click here to listen if using Windows Media Player

Or simply listen in your browser:

Listen right in your browser(in browser, requires Flash)

WMKP 181800Z 00000KT 8000 FEW025 SCT140 BKN270 29/26 Q1007 NOSIG


Listeners: 0 out of 1057 total

Penang Ground: 121.600

ZBAA Approach (Archives)
Beijing, China

Feed Status: UP

Click on your favorite media player to listen:
Listen with WinAmp to ZBAA Approach  Listen with iTunes to ZBAA Approach  Click here to listen if using Real Player  Click here to listen if using Windows Media Player

Or simply listen in your browser:

Listen right in your browser(in browser, requires Flash)

ZBAA 181800Z VRB01MPS CAVOK 23/22 Q1009 NOSIG


Listeners: 3 out of 1057 total

Beijing Approach: 120.600

ZBAA Tower (Archives)
Beijing, China

Feed Status: UP

Click on your favorite media player to listen:
Listen with WinAmp to ZBAA Tower  Listen with iTunes to ZBAA Tower  Click here to listen if using Real Player  Click here to listen if using Windows Media Player

Or simply listen in your browser:

Listen right in your browser(in browser, requires Flash)

ZBAA 181800Z VRB01MPS CAVOK 23/22 Q1009 NOSIG


Listeners: 1 out of 1057 total

Beijing Tower (Rwy 01/19): 118.600

ZYCY Tower (Archives)
Chaoyang, China

Feed Status: UP

Click on your favorite media player to listen:
Listen with WinAmp to ZYCY Tower  Listen with iTunes to ZYCY Tower  Click here to listen if using Real Player  Click here to listen if using Windows Media Player

Or simply listen in your browser:

Listen right in your browser(in browser, requires Flash)

ZYCY 140700Z 25002MPS CAVOK 29/16 Q1006 NOSIG


Listeners: 0 out of 1057 total

Chaoyang Tower: 118.350